Banff, Canada 16 day weather forecast

Slopes altitude range 1630 m - 2730m

Number of lifts: 26 Pistes: 120km

In some cases the lift and piste totals shown are for the ski domain (e.g. Three Valleys) rather than individual resort (e.g. Courchevel)

Overview

The 16 day weather forecast is fully updated 4 times every day.

    • Wed 21 NOV 2018
    • Wed 21
    • -8C -6C
    • Thu 22 NOV 2018
    • Thu 22
    • -9C -8C
    • Fri 23 NOV 2018
    • Fri 23
    • -8C -5C
    • Sat 24 NOV 2018
    • Sat 24
    • -10C -8C
    • Sun 25 NOV 2018
    • Sun 25
    • -12C -10C
    • Mon 26 NOV 2018
    • Mon 26
    • -13C -11C
    • Tue 27 NOV 2018
    • Tue 27
    • -8C -6C
    • Wed 28 NOV 2018
    • Wed 28
    • -7C -5C
    • Thu 29 NOV 2018
    • Thu 29
    • -4C -2C
    • Fri 30 NOV 2018
    • Fri 30
    • -4C -4C
    • Sat 01 DEC 2018
    • Sat 01
    • -8C -5C
    • Sun 02 DEC 2018
    • Sun 02
    • -10C -7C
    • Mon 03 DEC 2018
    • Mon 03
    • -11C -8C
    • Tue 04 DEC 2018
    • Tue 04
    • -12C -8C
    • Wed 05 DEC 2018
    • Wed 05
    • -10C -6C
    • Thu 06 DEC 2018
    • Thu 06
    • -9C -4C

Date:

Time Type 0°C level Temp Chill Snow Cloud Speed Gust Dir Press
12:00 837m -6°C -6_6 0cm 50% 6mph 7mph 1016mB
15:00 820m -8°C -8_7 0cm 100% 7mph 7mph 1015mB
18:00 1594m -3°C -3_7 0cm 100% 7mph 11mph 1011mB
21:00 1789m -3°C -3_8 0cm 100% 8mph 13mph 1007mB
0:00 1056m -7°C -7_7 0cm 99% 7mph 8mph 1008mB
3:00 885m -8°C -8_7 0cm 89% 7mph 9mph 1008mB
6:00 835m -8°C -8_8 0cm 52% 8mph 9mph 1007mB
9:00 681m -9°C -9_8 0cm 4% 8mph 9mph 1006mB
12:00 816m -8°C -8_7 0cm 17% 7mph 8mph 1006mB
15:00 1016m -7°C -7_6 0cm 67% 6mph 8mph 1005mB
18:00 1536m -4°C -4_7 1cm 81% 7mph 11mph 1003mB
21:00 1659m -4°C -4_7 1cm 98% 7mph 11mph 1000mB
0:00 1444m -4°C -4_5 1cm 99% 5mph 7mph 1001mB
3:00 1334m -5°C -5_4 1cm 100% 4mph 4mph 1003mB
6:00 1262m -5°C -5_4 1cm 99% 4mph 4mph 1004mB
9:00 1029m -7°C -7_4 0cm 97% 4mph 4mph 1004mB
12:00 904m -5°C -5_4 0cm 98% 4mph 5mph 1004mB
15:00 879m -7°C -7_4 1cm 97% 4mph 4mph 1005mB
18:00 1140m -6°C -6_4 1cm 99% 4mph 5mph 1003mB
21:00 1321m -6°C -6_4 1cm 100% 4mph 5mph 1002mB
0:00 968m -7°C -7_3 1cm 100% 3mph 3mph 1002mB
3:00 547m -10°C -10_2 0cm 100% 2mph 3mph 1005mB
6:00 620m -10°C -10_3 0cm 100% 3mph 4mph 1008mB
9:00 815m -9°C -9_2 1cm 100% 2mph 3mph 1012mB
12:00 620m -8°C -8_1 1cm 100% 1mph 2mph 1015mB
15:00 176m -10°C -10_4 0cm 54% 4mph 4mph 1018mB
18:00 874m -8°C -8_5 0cm 37% 5mph 7mph 1018mB
21:00 1106m -8°C -8_6 0cm 27% 6mph 9mph 1017mB
0:00 631m -9°C -9_6 0cm 45% 6mph 6mph 1018mB
3:00 621m -10°C -10_5 0cm 85% 5mph 6mph 1020mB
6:00 512m -10°C -10_5 0cm 93% 5mph 6mph 1020mB
9:00 346m -11°C -11_5 0cm 99% 5mph 6mph 1021mB
12:00 226m -10°C -10_5 0cm 97% 5mph 5mph 1021mB
15:00 323m -11°C -11_4 0cm 100% 4mph 5mph 1023mB
18:00 837m -8°C -8_5 1cm 98% 5mph 6mph 1023mB
21:00 1174m -8°C -8_5 0cm 50% 5mph 7mph 1022mB
0:00 551m -10°C -10_5 0cm 52% 5mph 5mph 1025mB
3:00 321m -12°C -12_4 0cm 33% 4mph 5mph 1027mB
6:00 286m -12°C -12_5 0cm 32% 5mph 6mph 1027mB
9:00 296m -12°C -12_6 0cm 38% 6mph 6mph 1028mB
12:00 148m -11°C -11_5 0cm 42% 5mph 6mph 1027mB
15:00 132m -12°C -12_6 0cm 79% 6mph 7mph 1027mB
18:00 917m -8°C -8_6 0cm 86% 6mph 9mph 1024mB
21:00 1283m -8°C -8_7 0cm 91% 7mph 10mph 1020mB
0:00 799m -8°C -8_7 0cm 90% 7mph 8mph 1019mB
3:00 720m -9°C -9_7 0cm 83% 7mph 8mph 1018mB
6:00 788m -9°C -9_8 0cm 84% 8mph 9mph 1016mB
9:00 981m -8°C -8_9 0cm 100% 9mph 12mph 1012mB
12:00 1194m -6°C -6_8 0cm 100% 8mph 10mph 1010mB
15:00 1445m -4°C -4_7 0cm 100% 7mph 10mph 1008mB
18:00 1842m -2°C -2_6 0cm 100% 6mph 8mph 1005mB
21:00 1881m -2°C -2_5 1cm 100% 5mph 6mph 1003mB
0:00 1692m -3°C -3_5 1cm 100% 5mph 7mph 1005mB
3:00 1554m -4°C -4_5 1cm 100% 5mph 5mph 1008mB
6:00 1334m -5°C -5_5 1cm 92% 5mph 6mph 1010mB
9:00 1180m -6°C -6_5 0cm 46% 5mph 5mph 1012mB
12:00 971m -5°C -5_5 0cm 41% 5mph 5mph 1011mB
15:00 779m -7°C -7_5 0cm 32% 5mph 5mph 1010mB
18:00 1240m -6°C -6_5 0cm 38% 5mph 7mph 1006mB
21:00 1691m -2°C -2_3 0cm 83% 3mph 5mph 1000mB
0:00 1336m -3°C -3_4 0cm 91% 4mph 4mph 997mB
3:00 1319m -3°C -3_4 1cm 100% 4mph 5mph 996mB
6:00 1302m -3°C -3_6 0cm 100% 6mph 7mph 995mB
9:00 1351m -3°C -3_8 0cm 100% 8mph 11mph 995mB
12:00 1191m -2°C -2_8 0cm 100% 8mph 11mph 996mB
15:00 1129m -4°C -4_7 0cm 99% 7mph 10mph 998mB
18:00 1604m -1°C -1_6 0cm 99% 6mph 11mph 999mB
21:00 1777m -1°C -1_7 0cm 83% 7mph 14mph 997mB
0:00 1327m -3°C -3_5 0cm 85% 5mph 6mph 998mB
3:00 1274m -3°C -3_5 0cm 100% 5mph 8mph 999mB
6:00 1153m -4°C -4_4 0cm 98% 4mph 5mph 1000mB
9:00 1090m -4°C -4_4 0cm 97% 4mph 5mph 1001mB
12:00 1049m -4°C -4_3 0cm 99% 3mph 4mph 1001mB
15:00 964m -4°C -4_3 1cm 98% 3mph 4mph 1002mB
18:00 1253m -3°C -3_3 1cm 99% 3mph 5mph 1002mB
21:00 1467m -3°C -3_2 0cm 100% 2mph 5mph 1001mB
0:00 976m -5°C -5_2 0cm 98% 2mph 2mph 1003mB
3:00 824m -6°C -6_3 0cm 80% 3mph 4mph 1006mB
6:00 746m -6°C -6_4 0cm 79% 4mph 4mph 1007mB
Afternoon 0.00520833mm 0 946m -5°C -5_3 1cm 92% 3mph 5mph 1011mB
Morning 0.166667mm 0 557m -8°C -8_4 1cm 92% 4mph 4mph 1016mB
Afternoon 0.197917mm 0 612m -7°C -7_6 2cm 80% 6mph 11mph 1018mB
Morning 0.270833mm 0 251m -10°C -10_7 0cm 68% 7mph 12mph 1019mB
Afternoon 0.0104167mm 0 548m -8°C -8_7 0cm 29% 7mph 13mph 1017mB
Morning 0.484375mm 0 159m -11°C -11_6 0cm 22% 6mph 9mph 1016mB
Afternoon 0.328125mm 0 478m -8°C -8_5 3cm 53% 5mph 8mph 1020mB
Morning 0.0572917mm 0 316m -10°C -10_9 0cm 58% 9mph 18mph 1017mB
Afternoon 0.0833333mm 0 803m -6°C -6_11 0cm 95% 11mph 22mph 1008mB
Morning 0.885417mm 0 457m -9°C -9_9 0cm 88% 9mph 18mph 1017mB
Afternoon 0.807292mm 0 1173m -4°C -4_14 0cm 24% 14mph 35mph 1014mB
Morning 0.411458mm 0 713m -7°C -7_10 0cm 57% 10mph 22mph 1010mB

16 day outlook at a glance

Forecast issued: 21/11/2018 13:40:23

Chat

Your comments and questions. In a resort? Let us know what it's like!


Characters left 250

For terms and conditions see Readers Comments on the Cookie and privacy policy page.